Flag for U.S.A. Weather past 2 weeks in Fresno, California, U.S.A.

Now
66 °F

Passing clouds.


Feels Like: 66 °F
Forecast: 59 / 90 °F
Wind: 3 mph from Southeast

Location: Fresno Air Terminal

Current Time: Apr 28, 2015 at 8:34:37 AM

Latest Report: Apr 28, 2015 at 7:53 AM


Visibility: 10 mi

Pressure: 30.00 "Hg

Humidity: 54%

Dew point: 49 °F

Location of FresnoLocation

Historic Weather in Fresno — Graph

°F

Fresno temperature yesterday

Maximum temperature yesterday: 81 °F (at 4:53 PM)
Minimum temperature yesterday: 55 °F (at 4:53 AM)
Average temperature yesterday: 69 °F

Past Weeks' High & Low Weather Summary

 TemperatureHumidityPressure
High88 °F (Apr 19, 4:53 PM)93% (Apr 25, 9:02 AM)30.26 "Hg (Apr 25, 9:02 AM)
Low45 °F (Apr 15, 6:53 AM)10% (Apr 14, 5:53 PM)29.69 "Hg (Apr 20, 5:53 PM)
Average66 °F45%29.94 "Hg
* Reported Apr 13 6:53 AM — Apr 28 6:53 AM, Fresno, Weather by CustomWeather, © 2015

Note: Actual official high and low records may vary slightly from our data, if they occured in-between our weather recording intervals... More about our weather records

Advertising

Fresno weather history for previous 24 hours

 ConditionsComfort  
Time TempWeatherWind HumidityBarometerVisibility
6:53 AM
Tue, Apr 28
62 °FPassing clouds.No wind65%29.99 "Hg10 mi
5:53 AM59 °FPassing clouds.3 mph69%29.98 "Hg10 mi
4:53 AM61 °FClear.No wind67%29.97 "Hg10 mi
3:53 AM61 °FClear.5 mph67%29.97 "Hg10 mi
2:53 AM63 °FClear.No wind65%29.97 "Hg10 mi
1:53 AM64 °FClear.3 mph65%29.97 "Hg10 mi
12:53 AM65 °FClear.3 mph61%29.97 "Hg10 mi
11:53 PM
Mon, Apr 27
68 °FClear.No wind63%29.96 "Hg10 mi
10:53 PM72 °FClear.3 mph52%29.95 "Hg10 mi
9:53 PM72 °FClear.5 mph48%29.94 "Hg10 mi
8:53 PM74 °FClear.7 mph43%29.93 "Hg10 mi
7:53 PM78 °FPassing clouds.No wind31%29.90 "Hg10 mi
6:53 PM81 °FPassing clouds.No wind26%29.90 "Hg10 mi
5:53 PM81 °FPassing clouds.No wind26%29.90 "Hg10 mi
4:53 PM81 °FPassing clouds.7 mph27%29.90 "Hg10 mi
3:53 PM80 °FPassing clouds.No wind28%29.93 "Hg10 mi
2:53 PM79 °FPassing clouds.6 mph30%29.96 "Hg10 mi
1:53 PM77 °FPassing clouds.7 mph31%29.98 "Hg10 mi
12:53 PM75 °FSunny.3 mph34%30.00 "Hg10 mi
11:53 AM73 °FPassing clouds.9 mph37%30.01 "Hg10 mi
10:53 AM72 °FPassing clouds.5 mph38%30.02 "Hg10 mi
9:53 AM68 °FSunny.6 mph47%30.03 "Hg10 mi
8:53 AM65 °FPassing clouds.8 mph52%30.03 "Hg10 mi
Weather by CustomWeather, © 2015

See weather overviewHow to use our weather pages